CDT,Max TemperatureF,Mean TemperatureF,Min TemperatureF,Max Dew PointF,MeanDew PointF,Min DewpointF,Max Humidity, Mean Humidity, Min Humidity, Max Sea Level PressureIn, Mean Sea Level PressureIn, Min Sea Level PressureIn, Max VisibilityMiles, Mean VisibilityMiles, Min VisibilityMiles, Max Wind SpeedMPH, Mean Wind SpeedMPH, Max Gust SpeedMPH,PrecipitationIn, CloudCover, Events, WindDirDegrees
2014-3-1,30,21,12,26,15,9,92,79,62,30.36,30.21,29.98,10,7,1,18,8,22,0.02,8,Snow,1
2014-3-2,11,6,1,8,-2,-10,87,67,58,30.44,30.40,30.33,10,9,1,17,12,20,0.01,4,Snow,344
2014-3-3,14,4,-5,5,-4,-15,76,64,56,30.52,30.45,30.35,10,10,10,13,5,,0.00,1,,354
2014-3-4,28,18,9,14,9,3,77,66,46,30.36,30.23,30.16,10,10,10,12,3,,0.00,4,,140
2014-3-5,24,21,18,20,17,11,90,82,71,30.41,30.35,30.23,10,6,0,17,10,22,0.01,7,Snow,70
2014-3-6,28,22,15,18,15,11,84,75,63,30.39,30.25,30.07,10,10,10,13,6,,0.00,2,,101
2014-3-7,44,29,14,34,25,13,93,78,62,30.06,29.96,29.87,10,7,2,13,3,,0.00,1,,186
2014-3-8,35,30,25,32,28,23,95,84,72,30.28,30.17,29.99,10,7,2,16,6,18,0.03,7,Rain-Snow,17
2014-3-9,44,32,21,32,27,18,92,75,61,30.27,30.08,29.80,10,10,7,20,10,29,0.00,0,,230
2014-3-10,54,47,39,40,36,32,88,67,56,29.82,29.73,29.69,10,10,7,20,14,29,0.00,2,,244
2014-3-11,47,40,33,39,36,32,97,86,67,29.75,29.68,29.63,10,6,2,23,5,31,0.34,2,Rain-Thunderstorm,45
2014-3-12,34,30,24,33,26,17,98,82,66,30.12,29.93,29.70,10,7,1,24,13,28,0.34,8,Snow,6
2014-3-13,41,30,19,35,24,15,93,82,71,30.13,30.02,29.84,10,9,2,20,6,24,0.00,3,,180
2014-3-14,54,46,37,39,34,30,81,67,52,29.91,29.75,29.62,10,10,10,28,17,41,0.00,1,,249
2014-3-15,41,36,31,32,29,27,89,76,61,30.21,30.07,29.91,10,10,10,17,9,25,0.00,1,,27
2014-3-16,30,26,21,27,17,13,88,71,54,30.33,30.24,30.17,10,8,1,30,20,36,0.00,3,Snow,52
2014-3-17,39,29,19,28,19,11,85,70,51,30.15,29.92,29.78,10,10,10,15,8,16,0.00,0,,125
2014-3-18,50,41,32,39,34,27,90,78,64,29.84,29.75,29.61,10,9,5,26,12,33,0.00,2,,146
2014-3-19,45,40,33,44,36,27,96,87,74,30.04,29.77,29.55,10,6,1,26,13,33,0.45,8,Rain,264
2014-3-20,46,38,30,34,31,28,90,74,54,30.06,30.02,29.96,10,10,10,12,5,,0.00,4,,262
2014-3-21,56,44,32,43,35,30,92,70,51,30.00,29.86,29.70,10,9,4,24,9,33,0.00,3,,129
2014-3-22,40,35,29,33,27,17,87,71,58,30.34,30.17,29.93,10,10,10,20,14,25,0.00,5,,312
2014-3-23,32,26,21,20,14,10,79,59,45,30.46,30.40,30.34,10,10,10,17,11,22,0.00,2,,336
2014-3-24,36,29,22,25,17,11,82,61,42,30.38,30.27,30.09,10,10,10,12,3,,0.00,3,,295
2014-3-25,31,25,19,27,16,11,92,67,49,30.27,30.15,30.05,10,10,2,24,13,31,0.00,4,Snow,300
2014-3-26,42,30,17,25,17,10,85,61,44,30.32,30.19,29.97,10,10,10,22,7,26,0.00,3,,176
2014-3-27,55,45,35,50,38,24,93,82,56,29.96,29.68,29.42,10,9,3,30,18,45,0.21,8,Rain-Thunderstorm,183
2014-3-28,45,43,37,42,35,32,93,82,73,30.18,29.93,29.46,10,9,2,38,17,47,0.00,8,,313
2014-3-29,45,40,33,33,30,23,88,75,57,30.25,30.20,30.15,10,9,5,16,8,21,0.00,5,,35
2014-3-30,58,43,28,40,31,21,85,64,47,30.27,30.16,30.01,10,10,7,17,5,22,0.00,0,,174
2014-3-31,64,52,41,44,39,34,78,59,41,30.02,29.87,29.70,10,10,7,28,16,39,0.00,2,Thunderstorm,169